| time (UTC) | temp F | wind direction | speed MPH | gust MPH | rain 1hr in | rain 24hr in | rain mn in | humidity % | barometer mb |
| 20260502215847 | 60 | 67 | 2.0 | 7.0 | 0.00 | 0.08 | 0.08 | 52 | 1012.4 |
| 20260502215347 | 60 | 84 | 2.0 | 6.0 | 0.00 | 0.08 | 0.08 | 52 | 1012.3 |
| 20260502214614 | 60 | 96 | 2.0 | 7.0 | 0.00 | 0.08 | 0.08 | 54 | 1012.3 |
| 20260502213848 | 60 | 101 | 2.0 | 4.0 | 0.00 | 0.08 | 0.08 | 54 | 1012.2 |
| 20260502213605 | 60 | 104 | 2.0 | 7.0 | 0.00 | 0.08 | 0.08 | 52 | 1012.2 |
| 20260502212847 | 60 | 107 | 2.0 | 7.0 | 0.00 | 0.08 | 0.08 | 52 | 1012.1 |
| 20260502212623 | 60 | 9 | 2.0 | 7.0 | 0.00 | 0.08 | 0.08 | 52 | 1012.2 |
| 20260502211848 | 60 | 113 | 2.0 | 7.0 | 0.00 | 0.08 | 0.08 | 56 | 1012.2 |
| 20260502211347 | 60 | 62 | 2.0 | 4.0 | 0.00 | 0.08 | 0.08 | 55 | 1012.2 |
| 20260502210847 | 60 | 79 | 2.0 | 7.0 | 0.00 | 0.08 | 0.08 | 55 | 1012.1 |
| 20260502210347 | 60 | 78 | 2.0 | 7.0 | 0.00 | 0.08 | 0.08 | 54 | 1012.2 |
| 20260502205847 | 60 | 99 | 1.0 | 6.0 | 0.00 | 0.08 | 0.08 | 57 | 1012.1 |
| 20260502205347 | 60 | 93 | 1.0 | 6.0 | 0.00 | 0.08 | 0.08 | 55 | 1012.1 |
| 20260502205108 | 60 | 90 | 3.0 | 8.0 | 0.00 | 0.08 | 0.08 | 55 | 1012.1 |
| 20260502204608 | 60 | 108 | 3.0 | 8.0 | 0.00 | 0.08 | 0.08 | 53 | 1012.1 |
| 20260502203845 | 60 | 107 | 3.0 | 7.0 | 0.00 | 0.08 | 0.08 | 55 | 1012.1 |
| 20260502203347 | 60 | 108 | 3.0 | 7.0 | 0.00 | 0.08 | 0.08 | 56 | 1012.2 |
| 20260502202843 | 60 | 84 | 3.0 | 8.0 | 0.00 | 0.08 | 0.08 | 57 | 1012.2 |
| 20260502202341 | 60 | 123 | 3.0 | 8.0 | 0.00 | 0.08 | 0.08 | 59 | 1012.2 |
| 20260502201840 | 60 | 119 | 3.0 | 7.0 | 0.00 | 0.08 | 0.08 | 59 | 1012.3 |
| 20260502201340 | 60 | 104 | 3.0 | 8.0 | 0.00 | 0.08 | 0.08 | 58 | 1012.3 |
| 20260502200840 | 59 | 79 | 3.0 | 8.0 | 0.00 | 0.08 | 0.08 | 58 | 1012.3 |
| 20260502200602 | 59 | 52 | 3.0 | 7.0 | 0.00 | 0.08 | 0.08 | 64 | 1012.3 |
| 20260502195840 | 59 | 97 | 4.0 | 8.0 | 0.00 | 0.08 | 0.08 | 62 | 1012.4 |
| 20260502195555 | 59 | 94 | 4.0 | 9.0 | 0.00 | 0.08 | 0.08 | 62 | 1012.4 |
| 20260502194834 | 59 | 125 | 3.0 | 9.0 | 0.00 | 0.08 | 0.08 | 64 | 1012.4 |
| 20260502194334 | 59 | 103 | 4.0 | 9.0 | 0.00 | 0.08 | 0.08 | 63 | 1012.5 |
| 20260502193836 | 59 | 63 | 4.0 | 9.0 | 0.00 | 0.08 | 0.08 | 64 | 1012.6 |
| 20260502193334 | 59 | 78 | 3.0 | 8.0 | 0.00 | 0.08 | 0.08 | 67 | 1012.8 |
| 20260502192834 | 59 | 50 | 3.0 | 8.0 | 0.00 | 0.08 | 0.08 | 68 | 1012.9 |
| 20260502192549 | 58 | 114 | 3.0 | 6.0 | 0.00 | 0.08 | 0.08 | 67 | 1012.9 |
| 20260502191820 | 58 | 103 | 3.0 | 7.0 | 0.00 | 0.08 | 0.08 | 67 | 1013.0 |
| 20260502191314 | 58 | 108 | 2.0 | 7.0 | 0.00 | 0.08 | 0.08 | 67 | 1013.0 |
| 20260502191037 | 58 | 90 | 2.0 | 6.0 | 0.00 | 0.08 | 0.08 | 68 | 1013.1 |
| 20260502190302 | 58 | 87 | 2.0 | 6.0 | 0.00 | 0.08 | 0.08 | 68 | 1013.2 |
| 20260502190023 | 58 | 94 | 2.0 | 7.0 | 0.00 | 0.08 | 0.08 | 69 | 1013.2 |
| 20260502185519 | 58 | 86 | 2.0 | 7.0 | 0.00 | 0.08 | 0.08 | 68 | 1013.0 |
| 20260502184757 | 58 | 118 | 1.0 | 5.0 | 0.00 | 0.08 | 0.08 | 67 | 1013.0 |
| 20260502184258 | 58 | 86 | 1.0 | 4.0 | 0.00 | 0.08 | 0.08 | 68 | 1013.1 |
| 20260502183758 | 58 | 76 | 2.0 | 8.0 | 0.00 | 0.08 | 0.08 | 68 | 1013.1 |
| 20260502183257 | 58 | 68 | 3.0 | 8.0 | 0.00 | 0.08 | 0.08 | 70 | 1012.9 |
| 20260502182758 | 58 | 54 | 2.0 | 7.0 | 0.00 | 0.08 | 0.08 | 69 | 1013.0 |
| 20260502182256 | 58 | 59 | 2.0 | 7.0 | 0.00 | 0.08 | 0.08 | 69 | 1013.0 |
| 20260502181756 | 58 | 39 | 3.0 | 7.0 | 0.00 | 0.08 | 0.08 | 69 | 1013.1 |
| 20260502181256 | 58 | 70 | 3.0 | 8.0 | 0.00 | 0.08 | 0.08 | 71 | 1013.2 |
| 20260502180756 | 58 | 59 | 3.0 | 8.0 | 0.00 | 0.08 | 0.08 | 72 | 1013.2 |
| 20260502180256 | 58 | 77 | 3.0 | 8.0 | 0.00 | 0.08 | 0.08 | 73 | 1013.1 |
| 20260502170213 | 56 | 85 | 2.0 | 8.0 | 0.00 | 0.08 | 0.08 | 81 | 1013.5 |
| 20260502164149 | 55 | 72 | 1.0 | 8.0 | 0.00 | 0.08 | 0.08 | 83 | 1013.8 |
| 20260502163642 | 54 | 126 | 2.0 | 8.0 | 0.00 | 0.08 | 0.08 | 84 | 1014.0 |
| 20260502163138 | 54 | 43 | 1.0 | 3.0 | 0.00 | 0.08 | 0.08 | 84 | 1014.1 |
| 20260502162125 | 54 | 95 | 1.0 | 5.0 | 0.00 | 0.08 | 0.08 | 85 | 1014.0 |
| 20260502161112 | 54 | 34 | 1.0 | 2.0 | 0.00 | 0.08 | 0.08 | 87 | 1013.9 |
| 20260502160607 | 54 | 35 | 1.0 | 5.0 | 0.00 | 0.08 | 0.08 | 87 | 1014.0 |
| 20260502152013 | 54 | 99 | 2.0 | 6.0 | 0.01 | 0.08 | 0.08 | 90 | 1014.3 |
| 20260502151506 | 54 | 92 | 1.0 | 6.0 | 0.01 | 0.08 | 0.08 | 90 | 1014.5 |
| 20260502151000 | 54 | 27 | 1.0 | 4.0 | 0.01 | 0.08 | 0.08 | 90 | 1014.9 |
| 20260502150455 | 54 | 30 | 1.0 | 4.0 | 0.01 | 0.08 | 0.08 | 90 | 1014.9 |
| 20260502130253 | 53 | 60 | 0.0 | 4.0 | 0.00 | 0.05 | 0.05 | 92 | 1013.8 |
| 20260502123749 | 54 | 73 | 1.0 | 2.0 | 0.00 | 0.05 | 0.05 | 92 | 1013.5 |
| 20260502123249 | 54 | 82 | 1.0 | 3.0 | 0.00 | 0.05 | 0.05 | 92 | 1013.3 |
| 20260502122750 | 54 | 82 | 1.0 | 3.0 | 0.00 | 0.05 | 0.05 | 92 | 1013.1 |
| 20260502122249 | 54 | 84 | 1.0 | 3.0 | 0.00 | 0.05 | 0.05 | 92 | 1013.3 |
| 20260502122016 | 54 | 84 | 1.0 | 3.0 | 0.00 | 0.05 | 0.05 | 92 | 1013.3 |
| 20260502121247 | 54 | 126 | 0.0 | 2.0 | 0.00 | 0.05 | 0.05 | 92 | 1012.8 |
| 20260502120747 | 54 | 143 | 0.0 | 0.0 | 0.00 | 0.05 | 0.05 | 92 | 1012.9 |
| 20260502120243 | 55 | 142 | 0.0 | 0.0 | 0.00 | 0.05 | 0.05 | 92 | 1012.6 |
| 20260502115740 | 55 | 142 | 0.0 | 0.0 | 0.00 | 0.05 | 0.05 | 92 | 1012.6 |
| 20260502115501 | 55 | 150 | 0.0 | 0.0 | 0.00 | 0.05 | 0.05 | 92 | 1012.6 |
| 20260502114739 | 55 | 150 | 0.0 | 0.0 | 0.00 | 0.05 | 0.05 | 91 | 1012.7 |
| 20260502114239 | 55 | 150 | 0.0 | 0.0 | 0.00 | 0.05 | 0.05 | 92 | 1012.8 |
| 20260502113956 | 55 | 150 | 0.0 | 0.0 | 0.00 | 0.05 | 0.05 | 92 | 1012.7 |
| 20260502113237 | 55 | 150 | 0.0 | 0.0 | 0.00 | 0.05 | 0.05 | 91 | 1012.6 |
| 20260502112735 | 55 | 150 | 0.0 | 0.0 | 0.00 | 0.05 | 0.05 | 91 | 1012.5 |
| 20260502112233 | 55 | 150 | 0.0 | 0.0 | 0.00 | 0.05 | 0.05 | 91 | 1012.5 |
| 20260502111959 | 55 | 150 | 0.0 | 0.0 | 0.00 | 0.05 | 0.05 | 91 | 1012.4 |
| 20260502111232 | 55 | 150 | 0.0 | 0.0 | 0.01 | 0.05 | 0.05 | 91 | 1012.2 |
| 20260502110731 | 55 | 150 | 0.0 | 0.0 | 0.01 | 0.05 | 0.05 | 91 | 1012.2 |
| 20260502110229 | 55 | 150 | 0.0 | 0.0 | 0.01 | 0.05 | 0.05 | 91 | 1012.1 |
| 20260502105728 | 55 | 150 | 0.0 | 0.0 | 0.02 | 0.05 | 0.05 | 91 | 1012.1 |
| 20260502105230 | 55 | 150 | 0.0 | 0.0 | 0.03 | 0.05 | 0.05 | 91 | 1012.1 |
| 20260502104728 | 55 | 150 | 0.0 | 0.0 | 0.03 | 0.05 | 0.05 | 90 | 1012.0 |
| 20260502104227 | 55 | 150 | 0.0 | 0.0 | 0.04 | 0.05 | 0.05 | 90 | 1012.2 |
| 20260502103727 | 55 | 150 | 0.0 | 0.0 | 0.04 | 0.05 | 0.05 | 90 | 1012.3 |
| 20260502103227 | 55 | 150 | 0.0 | 0.0 | 0.05 | 0.05 | 0.05 | 90 | 1012.4 |
| 20260502102727 | 55 | 150 | 0.0 | 0.0 | 0.05 | 0.05 | 0.05 | 90 | 1012.4 |
| 20260502102227 | 55 | 150 | 0.0 | 0.0 | 0.05 | 0.05 | 0.05 | 90 | 1012.3 |
| 20260502101726 | 55 | 150 | 0.0 | 0.0 | 0.05 | 0.05 | 0.05 | 90 | 1012.4 |
| 20260502101440 | 55 | 150 | 0.0 | 0.0 | 0.04 | 0.04 | 0.04 | 90 | 1012.6 |
| 20260502100723 | 55 | 150 | 0.0 | 0.0 | 0.04 | 0.04 | 0.04 | 90 | 1012.6 |
| 20260502100223 | 56 | 150 | 0.0 | 0.0 | 0.04 | 0.04 | 0.04 | 90 | 1012.7 |
| 20260502091219 | 56 | 151 | 0.0 | 1.0 | 0.00 | 0.00 | 0.00 | 89 | 1013.1 |
| 20260502090719 | 56 | 151 | 1.0 | 3.0 | 0.00 | 0.00 | 0.00 | 89 | 1013.1 |
| 20260502090219 | 56 | 151 | 1.0 | 3.0 | 0.00 | 0.00 | 0.00 | 89 | 1013.1 |
| 20260502071140 | 56 | 152 | 0.0 | 0.0 | 0.00 | 0.00 | 0.00 | 85 | 1011.9 |
| 20260502070637 | 56 | 152 | 0.0 | 0.0 | 0.00 | 0.00 | 0.00 | 85 | 1011.8 |
| 20260502070128 | 56 | 152 | 0.0 | 0.0 | 0.00 | 0.00 | 0.00 | 85 | 1011.8 |
| 20260502065621 | 56 | 152 | 0.0 | 0.0 | 0.00 | 0.00 | 0.00 | 85 | 1011.9 |
| 20260502065116 | 56 | 152 | 0.0 | 0.0 | 0.00 | 0.00 | 0.00 | 85 | 1012.0 |
| 20260502064610 | 56 | 152 | 0.0 | 0.0 | 0.00 | 0.00 | 0.00 | 85 | 1012.0 |
| 20260502064325 | 56 | 152 | 0.0 | 0.0 | 0.00 | 0.00 | 0.00 | 85 | 1012.0 |
| 20260502063558 | 56 | 152 | 0.0 | 0.0 | 0.00 | 0.00 | 0.00 | 85 | 1012.1 |
| 20260502063051 | 56 | 152 | 0.0 | 0.0 | 0.00 | 0.00 | 0.00 | 85 | 1012.1 |
| 20260502062546 | 56 | 152 | 0.0 | 0.0 | 0.00 | 0.00 | 0.00 | 85 | 1012.1 |
| 20260502062039 | 56 | 152 | 0.0 | 0.0 | 0.00 | 0.00 | 0.00 | 85 | 1012.2 |
| 20260502061754 | 56 | 152 | 0.0 | 0.0 | 0.00 | 0.00 | 0.00 | 84 | 1012.3 |
| 20260502061250 | 56 | 152 | 0.0 | 0.0 | 0.00 | 0.00 | 0.00 | 84 | 1012.3 |
| 20260502060521 | 56 | 152 | 0.0 | 0.0 | 0.00 | 0.00 | 0.00 | 84 | 1012.3 |
| 20260502060016 | 56 | 152 | 0.0 | 0.0 | 0.00 | 0.00 | 0.00 | 84 | 1012.4 |
| 20260502055729 | 56 | 151 | 0.0 | 0.0 | 0.00 | 0.00 | 0.00 | 84 | 1012.6 |
| 20260502055004 | 56 | 152 | 0.0 | 0.0 | 0.00 | 0.00 | 0.00 | 84 | 1012.7 |
| 20260502054209 | 56 | 152 | 0.0 | 0.0 | 0.00 | 0.00 | 0.00 | 84 | 1012.8 |
| 20260502053445 | 56 | 152 | 0.0 | 0.0 | 0.00 | 0.00 | 0.00 | 84 | 1012.9 |
| 20260502052941 | 56 | 152 | 0.0 | 0.0 | 0.00 | 0.00 | 0.00 | 84 | 1012.8 |
| 20260502052434 | 56 | 152 | 0.0 | 0.0 | 0.00 | 0.00 | 0.00 | 84 | 1012.9 |
| 20260502051929 | 56 | 152 | 0.0 | 0.0 | 0.00 | 0.00 | 0.00 | 84 | 1012.9 |
| 20260502051421 | 56 | 152 | 0.0 | 0.0 | 0.00 | 0.00 | 0.00 | 84 | 1012.8 |
| 20260502050916 | 56 | 152 | 0.0 | 0.0 | 0.00 | 0.00 | 0.00 | 84 | 1012.8 |
| 20260502050409 | 56 | 152 | 0.0 | 0.0 | 0.00 | 0.00 | 0.00 | 84 | 1013.1 |
| 20260502045904 | 56 | 152 | 0.0 | 0.0 | 0.00 | 0.00 | 0.00 | 83 | 1013.2 |
| 20260502045358 | 56 | 152 | 0.0 | 0.0 | 0.00 | 0.00 | 0.00 | 83 | 1013.2 |
| 20260502045115 | 56 | 152 | 0.0 | 0.0 | 0.00 | 0.00 | 0.00 | 83 | 1013.2 |
| 20260502044345 | 56 | 152 | 0.0 | 0.0 | 0.00 | 0.00 | 0.00 | 83 | 1013.3 |
| 20260502043840 | 56 | 152 | 0.0 | 0.0 | 0.00 | 0.00 | 0.00 | 83 | 1013.3 |
| 20260502043334 | 56 | 152 | 0.0 | 0.0 | 0.00 | 0.00 | 0.00 | 83 | 1013.2 |
| 20260502042828 | 56 | 152 | 0.0 | 0.0 | 0.00 | 0.00 | 0.00 | 82 | 1013.1 |
| 20260502042322 | 56 | 152 | 0.0 | 0.0 | 0.00 | 0.00 | 0.00 | 83 | 1013.0 |
| 20260502041816 | 56 | 152 | 0.0 | 0.0 | 0.00 | 0.00 | 0.00 | 82 | 1013.0 |
| 20260502041310 | 56 | 152 | 0.0 | 0.0 | 0.00 | 0.00 | 0.00 | 82 | 1013.1 |
| 20260502040804 | 56 | 152 | 0.0 | 0.0 | 0.00 | 0.00 | 0.00 | 82 | 1013.2 |
| 20260502040530 | 57 | 152 | 0.0 | 0.0 | 0.00 | 0.00 | 0.00 | 82 | 1013.2 |
| 20260502035751 | 57 | 152 | 0.0 | 0.0 | 0.00 | 0.00 | 0.00 | 82 | 1013.2 |
| 20260502035504 | 57 | 152 | 0.0 | 0.0 | 0.00 | 0.00 | 0.00 | 82 | 1013.2 |
| 20260502034740 | 57 | 152 | 0.0 | 0.0 | 0.00 | 0.00 | 0.00 | 82 | 1013.2 |
| 20260502034234 | 57 | 152 | 0.0 | 0.0 | 0.00 | 0.00 | 0.00 | 82 | 1013.2 |
| 20260502033726 | 57 | 152 | 0.0 | 0.0 | 0.00 | 0.00 | 0.00 | 82 | 1013.3 |
| 20260502033221 | 57 | 152 | 0.0 | 0.0 | 0.00 | 0.00 | 0.00 | 82 | 1013.4 |
| 20260502032713 | 57 | 152 | 0.0 | 0.0 | 0.00 | 0.00 | 0.00 | 81 | 1013.4 |
| 20260502032208 | 57 | 152 | 0.0 | 0.0 | 0.00 | 0.00 | 0.00 | 81 | 1013.5 |
| 20260502031702 | 57 | 152 | 0.0 | 0.0 | 0.00 | 0.00 | 0.00 | 81 | 1013.6 |
| 20260502031155 | 57 | 152 | 0.0 | 0.0 | 0.00 | 0.00 | 0.00 | 81 | 1013.5 |
| 20260502030650 | 57 | 152 | 0.0 | 0.0 | 0.00 | 0.00 | 0.00 | 80 | 1013.4 |
| 20260502030144 | 57 | 151 | 0.0 | 0.0 | 0.00 | 0.00 | 0.00 | 80 | 1013.4 |
| 20260502025637 | 58 | 152 | 0.0 | 0.0 | 0.00 | 0.00 | 0.00 | 80 | 1013.4 |
| 20260502025132 | 58 | 152 | 0.0 | 0.0 | 0.00 | 0.00 | 0.00 | 80 | 1013.4 |
| 20260502024626 | 58 | 152 | 0.0 | 0.0 | 0.00 | 0.00 | 0.00 | 80 | 1013.5 |
| 20260502024119 | 58 | 152 | 0.0 | 0.0 | 0.00 | 0.00 | 0.00 | 80 | 1013.5 |
| 20260502023613 | 58 | 152 | 0.0 | 0.0 | 0.00 | 0.00 | 0.00 | 79 | 1013.6 |
| 20260502023108 | 58 | 152 | 0.0 | 0.0 | 0.00 | 0.00 | 0.00 | 79 | 1013.7 |
| 20260502022602 | 58 | 152 | 0.0 | 0.0 | 0.00 | 0.00 | 0.00 | 79 | 1013.7 |
| 20260502022317 | 58 | 152 | 0.0 | 0.0 | 0.00 | 0.00 | 0.00 | 78 | 1013.7 |
| 20260502021550 | 58 | 152 | 0.0 | 0.0 | 0.00 | 0.00 | 0.00 | 78 | 1013.7 |
| 20260502021044 | 58 | 152 | 0.0 | 0.0 | 0.00 | 0.00 | 0.00 | 78 | 1013.6 |
| 20260502020539 | 58 | 152 | 0.0 | 0.0 | 0.00 | 0.00 | 0.00 | 77 | 1013.5 |
| 20260502020032 | 58 | 152 | 0.0 | 0.0 | 0.00 | 0.00 | 0.00 | 77 | 1013.5 |
| 20260502015526 | 59 | 152 | 0.0 | 0.0 | 0.00 | 0.00 | 0.00 | 77 | 1013.5 |
| 20260502015021 | 59 | 152 | 0.0 | 0.0 | 0.00 | 0.00 | 0.00 | 77 | 1013.5 |
| 20260502014514 | 59 | 152 | 0.0 | 0.0 | 0.00 | 0.00 | 0.00 | 77 | 1013.5 |
| 20260502014007 | 59 | 152 | 0.0 | 0.0 | 0.00 | 0.00 | 0.00 | 77 | 1013.5 |
| 20260502013502 | 59 | 152 | 0.0 | 0.0 | 0.00 | 0.00 | 0.00 | 76 | 1013.4 |
| 20260502012956 | 59 | 152 | 0.0 | 0.0 | 0.00 | 0.00 | 0.00 | 76 | 1013.3 |
| 20260502012450 | 59 | 152 | 0.0 | 0.0 | 0.00 | 0.00 | 0.00 | 76 | 1013.4 |
| 20260502011945 | 59 | 152 | 0.0 | 0.0 | 0.00 | 0.00 | 0.00 | 75 | 1013.4 |
| 20260502011438 | 60 | 152 | 0.0 | 0.0 | 0.00 | 0.00 | 0.00 | 75 | 1013.4 |
| 20260502010933 | 60 | 152 | 0.0 | 0.0 | 0.00 | 0.00 | 0.00 | 75 | 1013.5 |
| 20260502010426 | 60 | 152 | 0.0 | 0.0 | 0.00 | 0.00 | 0.00 | 75 | 1013.5 |
| 20260502005919 | 60 | 152 | 0.0 | 0.0 | 0.00 | 0.00 | 0.00 | 74 | 1013.4 |
| 20260502005634 | 60 | 152 | 0.0 | 0.0 | 0.00 | 0.00 | 0.00 | 74 | 1013.3 |
| 20260502004904 | 60 | 152 | 0.0 | 0.0 | 0.00 | 0.00 | 0.00 | 73 | 1013.0 |
| 20260502004358 | 60 | 152 | 0.0 | 0.0 | 0.00 | 0.00 | 0.00 | 73 | 1012.9 |
| 20260502003853 | 60 | 152 | 0.0 | 0.0 | 0.00 | 0.00 | 0.00 | 72 | 1013.0 |
| 20260502003346 | 60 | 151 | 0.0 | 1.0 | 0.00 | 0.00 | 0.00 | 72 | 1013.1 |
| 20260502002840 | 61 | 151 | 0.0 | 1.0 | 0.00 | 0.00 | 0.00 | 72 | 1013.1 |
| 20260502002334 | 61 | 151 | 0.0 | 1.0 | 0.00 | 0.00 | 0.00 | 71 | 1012.9 |
| 20260502001829 | 61 | 151 | 0.0 | 2.0 | 0.00 | 0.00 | 0.00 | 71 | 1012.6 |
| 20260502001322 | 61 | 151 | 0.0 | 2.0 | 0.00 | 0.00 | 0.00 | 71 | 1012.6 |
| 20260502000815 | 61 | 151 | 0.0 | 1.0 | 0.00 | 0.00 | 0.00 | 71 | 1012.4 |
| 20260502000310 | 61 | 151 | 1.0 | 2.0 | 0.00 | 0.00 | 0.00 | 70 | 1012.6 |
| 20260501235804 | 61 | 151 | 0.0 | 2.0 | 0.00 | 0.00 | 0.00 | 70 | 1012.5 |
| 20260501235257 | 62 | 151 | 0.0 | 2.0 | 0.00 | 0.00 | 0.00 | 70 | 1012.6 |
| 20260501234752 | 62 | 151 | 0.0 | 2.0 | 0.00 | 0.00 | 0.00 | 69 | 1012.5 |
| 20260501234245 | 62 | 151 | 0.0 | 2.0 | 0.00 | 0.00 | 0.00 | 69 | 1012.6 |
| 20260501233740 | 62 | 153 | 0.0 | 2.0 | 0.00 | 0.00 | 0.00 | 69 | 1012.4 |
| 20260501233234 | 62 | 153 | 1.0 | 4.0 | 0.00 | 0.00 | 0.00 | 68 | 1012.2 |
| 20260501232728 | 62 | 153 | 1.0 | 4.0 | 0.00 | 0.00 | 0.00 | 68 | 1012.2 |
| 20260501232221 | 62 | 216 | 1.0 | 3.0 | 0.00 | 0.00 | 0.00 | 68 | 1012.1 |
| 20260501231716 | 62 | 240 | 2.0 | 4.0 | 0.00 | 0.00 | 0.00 | 68 | 1012.0 |
| 20260501231209 | 62 | 202 | 1.0 | 4.0 | 0.00 | 0.00 | 0.00 | 67 | 1012.1 |
| 20260501230704 | 62 | 111 | 1.0 | 3.0 | 0.00 | 0.00 | 0.00 | 67 | 1012.2 |
| 20260501230159 | 62 | 115 | 1.0 | 3.0 | 0.00 | 0.00 | 0.00 | 67 | 1012.5 |
| 20260501225652 | 63 | 256 | 1.0 | 3.0 | 0.00 | 0.00 | 0.00 | 66 | 1012.4 |
| 20260501225145 | 63 | 130 | 1.0 | 3.0 | 0.00 | 0.00 | 0.00 | 67 | 1012.4 |
| 20260501224640 | 63 | 128 | 1.0 | 3.0 | 0.00 | 0.00 | 0.00 | 67 | 1012.4 |
| 20260501224134 | 62 | 128 | 1.0 | 3.0 | 0.00 | 0.00 | 0.00 | 66 | 1012.4 |
| 20260501223627 | 62 | 145 | 1.0 | 3.0 | 0.00 | 0.00 | 0.00 | 65 | 1012.4 |
| 20260501223345 | 62 | 126 | 1.0 | 3.0 | 0.00 | 0.00 | 0.00 | 65 | 1012.5 |
| 20260501222620 | 62 | 126 | 1.0 | 4.0 | 0.00 | 0.00 | 0.00 | 65 | 1012.6 |
| 20260501222120 | 62 | 107 | 1.0 | 4.0 | 0.00 | 0.00 | 0.00 | 64 | 1012.7 |
| 20260501221621 | 62 | 249 | 1.0 | 4.0 | 0.00 | 0.00 | 0.00 | 63 | 1012.7 |
| 20260501221120 | 62 | 40 | 1.0 | 4.0 | 0.00 | 0.00 | 0.00 | 63 | 1012.7 |
| 20260501220618 | 63 | 240 | 1.0 | 5.0 | 0.00 | 0.00 | 0.00 | 63 | 1012.7 |